When you browse on this site, cookies collect data to enhance your experience and personalize the content and advertising you see.
Visit our Privacy Policy to learn more. By continuing to use the site, you agree to this use of cookies and data.
  • En España
  • Lista de países
  • Para 7 días
  • Temperatura del agua
  • El tiempo en el mapa
  • Informadores
  • user-avatar
    Iniciar sesión

    Tiempo cada hora Molina

    Hoy, 30 Marzo, Lunes

    Tiempo Temperatura Precipitaciones Viento Presión Humedad
    00:00 +12°C° 0 mm 2 mps 739 mmHg 55%
    01:00 +10°C° 0 mm 2 mps 739 mmHg 59%
    02:00 +10°C° 0 mm 1 mps 738 mmHg 65%
    03:00 +9°C° 0 mm 1 mps 738 mmHg 72%
    04:00 +9°C° 0 mm 1 mps 738 mmHg 79%
    05:00 +9°C° 0 mm 1 mps 738 mmHg 77%
    06:00 +10°C° 0 mm 1 mps 739 mmHg 74%
    07:00 +11°C° 0 mm 1 mps 739 mmHg 72%
    08:00 +14°C° 0 mm 1 mps 739 mmHg 60%
    09:00 +18°C° 0 mm 2 mps 739 mmHg 48%
    10:00 +21°C° 0 mm 3 mps 739 mmHg 35%
    11:00 +25°C° 0 mm 3 mps 739 mmHg 30%
    12:00 +28°C° 0 mm 3 mps 739 mmHg 24%
    13:00 +30°C° 0 mm 3 mps 738 mmHg 18%
    14:00 +31°C° 0 mm 3 mps 739 mmHg 17%
    15:00 +31°C° 0 mm 3 mps 739 mmHg 15%
    16:00 +31°C° 0 mm 2 mps 739 mmHg 14%
    17:00 +28°C° 0 mm 2 mps 739 mmHg 19%
    18:00 +24°C° 0 mm 2 mps 739 mmHg 24%
    19:00 +20°C° 0 mm 2 mps 739 mmHg 28%
    20:00 +19°C° 0 mm 1 mps 739 mmHg 31%
    21:00 +18°C° 0 mm 1 mps 739 mmHg 34%
    22:00 +16°C° 0 mm 1 mps 738 mmHg 37%
    23:00 +15°C° 0 mm 1 mps 738 mmHg 41%

    Mañana, 31 Marzo, Martes

    Tiempo Temperatura Precipitaciones Viento Presión Humedad
    00:00 +14°C° 0 mm 1 mps 738 mmHg 45%
    01:00 +13°C° 0 mm 1 mps 738 mmHg 49%
    02:00 +12°C° 0 mm 1 mps 738 mmHg 55%
    03:00 +11°C° 0 mm 1 mps 737 mmHg 61%
    04:00 +10°C° 0 mm 1 mps 737 mmHg 67%
    05:00 +11°C° 0 mm 1 mps 738 mmHg 66%
    06:00 +12°C° 0 mm 1 mps 738 mmHg 66%
    07:00 +12°C° 0 mm 1 mps 738 mmHg 65%
    08:00 +16°C° 0 mm 1 mps 738 mmHg 54%
    09:00 +19°C° 0 mm 2 mps 738 mmHg 43%
    10:00 +23°C° 0 mm 2 mps 738 mmHg 32%
    11:00 +26°C° 0 mm 3 mps 738 mmHg 27%
    12:00 +28°C° 0 mm 3 mps 738 mmHg 22%
    13:00 +30°C° 0 mm 3 mps 738 mmHg 16%
    14:00 +30°C° 0 mm 3 mps 738 mmHg 15%
    15:00 +31°C° 0 mm 3 mps 738 mmHg 15%
    16:00 +31°C° 0 mm 3 mps 738 mmHg 14%
    17:00 +27°C° 0 mm 3 mps 738 mmHg 20%
    18:00 +23°C° 0 mm 2 mps 738 mmHg 27%
    19:00 +18°C° 0 mm 2 mps 739 mmHg 34%
    20:00 +17°C° 0 mm 2 mps 739 mmHg 40%
    21:00 +15°C° 0 mm 2 mps 739 mmHg 47%
    22:00 +14°C° 0 mm 1 mps 739 mmHg 53%
    23:00 +13°C° 0 mm 1 mps 739 mmHg 61%

    Pasado mañana, 1 Abril, Miércoles

    Tiempo Temperatura Precipitaciones Viento Presión Humedad
    00:00 +12°C° 0 mm 1 mps 738 mmHg 69%
    01:00 +11°C° 0 mm 1 mps 738 mmHg 76%
    02:00 +10°C° 0 mm 1 mps 738 mmHg 79%
    03:00 +9°C° 0 mm 1 mps 738 mmHg 81%
    04:00 +9°C° 0 mm 1 mps 738 mmHg 84%
    05:00 +9°C° 0 mm 1 mps 739 mmHg 83%
    06:00 +10°C° 0 mm 1 mps 739 mmHg 82%
    07:00 +10°C° 0 mm 1 mps 740 mmHg 80%
    08:00 +13°C° 0 mm 2 mps 740 mmHg 66%
    09:00 +17°C° 0 mm 3 mps 740 mmHg 52%
    10:00 +20°C° 0 mm 4 mps 740 mmHg 38%
    11:00 +23°C° 0 mm 4 mps 740 mmHg 31%
    12:00 +27°C° 0 mm 4 mps 740 mmHg 23%
    13:00 +29°C° 0 mm 5 mps 740 mmHg 16%
    14:00 +29°C° 0 mm 5 mps 740 mmHg 14%
    15:00 +30°C° 0 mm 5 mps 740 mmHg 13%
    16:00 +30°C° 0 mm 5 mps 740 mmHg 12%
    17:00 +26°C° 0 mm 5 mps 740 mmHg 17%
    18:00 +22°C° 0 mm 4 mps 740 mmHg 22%
    19:00 +18°C° 0 mm 3 mps 741 mmHg 27%
    20:00 +16°C° 0 mm 2 mps 741 mmHg 33%
    21:00 +15°C° 0 mm 2 mps 741 mmHg 39%
    22:00 +13°C° 0 mm 2 mps 741 mmHg 45%
    23:00 +12°C° 0 mm 2 mps 741 mmHg 52%

    2 Abril, Jueves

    Tiempo Temperatura Precipitaciones Viento Presión Humedad
    00:00 +10°C° 0 mm 2 mps 741 mmHg 59%
    01:00 +9°C° 0 mm 2 mps 740 mmHg 66%
    02:00 +9°C° 0 mm 2 mps 740 mmHg 69%
    03:00 +9°C° 0 mm 2 mps 740 mmHg 73%
    04:00 +9°C° 0 mm 1 mps 739 mmHg 76%
    05:00 +10°C° 0 mm 1 mps 739 mmHg 73%
    06:00 +11°C° 0 mm 1 mps 739 mmHg 70%
    07:00 +12°C° 0 mm 1 mps 739 mmHg 67%
    08:00 +16°C° 0 mm 2 mps 739 mmHg 54%
    09:00 +20°C° 0 mm 2 mps 739 mmHg 40%
    10:00 +25°C° 0 mm 3 mps 739 mmHg 27%
    11:00 +28°C° 0 mm 3 mps 738 mmHg 22%
    12:00 +31°C° 0 mm 3 mps 738 mmHg 17%
    13:00 +35°C° 0 mm 3 mps 738 mmHg 12%
    14:00 +35°C° 0 mm 3 mps 738 mmHg 11%
    15:00 +35°C° 0 mm 3 mps 738 mmHg 10%
    16:00 +36°C° 0 mm 3 mps 737 mmHg 8%
    17:00 +30°C° 0 mm 2 mps 738 mmHg 13%
    18:00 +26°C° 0 mm 2 mps 738 mmHg 18%
    19:00 +22°C° 0 mm 1 mps 738 mmHg 23%
    20:00 +20°C° 0 mm 1 mps 738 mmHg 25%
    21:00 +19°C° 0 mm 1 mps 738 mmHg 28%
    22:00 +18°C° 0 mm 1 mps 738 mmHg 30%
    23:00 +15°C° 0 mm 1 mps 738 mmHg 35%

    3 Abril, Viernes

    Tiempo Temperatura Precipitaciones Viento Presión Humedad
    00:00 +14°C° 0 mm 1 mps 738 mmHg 39%
    01:00 +13°C° 0 mm 1 mps 737 mmHg 44%
    02:00 +13°C° 0 mm 1 mps 737 mmHg 50%
    03:00 +12°C° 0 mm 1 mps 737 mmHg 57%
    04:00 +11°C° 0 mm 1 mps 736 mmHg 63%
    05:00 +12°C° 0 mm 1 mps 737 mmHg 63%
    06:00 +12°C° 0 mm 1 mps 737 mmHg 62%
    07:00 +13°C° 0 mm 1 mps 737 mmHg 62%
    08:00 +16°C° 0 mm 1 mps 737 mmHg 51%
    09:00 +20°C° 0 mm 2 mps 737 mmHg 41%
    10:00 +24°C° 0 mm 2 mps 737 mmHg 30%
    11:00 +26°C° 0 mm 3 mps 737 mmHg 26%
    12:00 +29°C° 0 mm 3 mps 737 mmHg 21%
    13:00 +31°C° 0 mm 3 mps 737 mmHg 16%
    14:00 +31°C° 0 mm 3 mps 737 mmHg 15%
    15:00 +33°C° 0 mm 3 mps 737 mmHg 14%
    16:00 +33°C° 0 mm 3 mps 737 mmHg 13%
    17:00 +28°C° 0 mm 2 mps 737 mmHg 19%
    18:00 +23°C° 0 mm 2 mps 737 mmHg 25%
    19:00 +19°C° 0 mm 1 mps 737 mmHg 32%
    20:00 +18°C° 0 mm 1 mps 737 mmHg 35%
    21:00 +15°C° 0 mm 1 mps 737 mmHg 39%
    22:00 +14°C° 0 mm 1 mps 737 mmHg 43%
    23:00 +13°C° 0 mm 1 mps 737 mmHg 45%

    4 Abril, Sábado

    Tiempo Temperatura Precipitaciones Viento Presión Humedad
    00:00 +12°C° 0 mm 1 mps 737 mmHg 47%
    01:00 +12°C° 0 mm 1 mps 737 mmHg 50%
    02:00 +11°C° 0 mm 1 mps 736 mmHg 56%
    03:00 +11°C° 0 mm 1 mps 736 mmHg 62%
    04:00 +10°C° 0 mm 1 mps 736 mmHg 67%
    05:00 +11°C° 0 mm 1 mps 736 mmHg 67%
    06:00 +12°C° 0 mm 1 mps 736 mmHg 66%
    07:00 +13°C° 0 mm 1 mps 736 mmHg 66%
    08:00 +16°C° 0 mm 2 mps 736 mmHg 57%
    09:00 +19°C° 0 mm 2 mps 736 mmHg 49%
    10:00 +22°C° 0 mm 3 mps 736 mmHg 41%
    11:00 +25°C° 0 mm 3 mps 736 mmHg 36%
    12:00 +27°C° 0 mm 3 mps 736 mmHg 31%
    13:00 +29°C° 0 mm 4 mps 736 mmHg 26%
    14:00 +29°C° 0 mm 4 mps 736 mmHg 25%
    15:00 +29°C° 0 mm 4 mps 736 mmHg 23%
    16:00 +29°C° 0 mm 3 mps 736 mmHg 21%
    17:00 +26°C° 0 mm 3 mps 736 mmHg 25%
    18:00 +21°C° 0 mm 3 mps 736 mmHg 29%
    19:00 +18°C° 0 mm 2 mps 737 mmHg 33%
    20:00 +16°C° 0 mm 2 mps 737 mmHg 34%
    21:00 +15°C° 0 mm 2 mps 737 mmHg 36%
    22:00 +13°C° 0 mm 1 mps 737 mmHg 37%
    23:00 +12°C° 0 mm 1 mps 737 mmHg 43%
    Mostrar más